• Join FlightAware (Why Join?)
  • Login
  • US Flag 
11:27AM EDT


 

Airport Tracker/Info


-or-


 

Live Flight TrackerFlight Track Log ✈ RPA5403 ✈ 10-May-2013 ✈ CYYZ - KACY

Flight Track Log - Related Links

Times and Time Zones

All times are in EDT time to prevent confusion due to time zone crossing. See the RPA5403 flight status page for this flight to view local times or setup timezone preferences in your user account.

Time Position Orientation Groundspeed Altitude Reporting Facility
EDT Latitude Longitude Course Direction KTS MPH feet Rate Location/Type
09:57AM 43.6667 -79.5833 47° Northeast 80 92 600  Level Toronto Center
09:58AM 43.7000 -79.5333 47° Northeast 150 173 2,300 1,560 Climbing Toronto Center
09:59AM 43.7333 -79.5000 36° Northeast 220 253 3,800 2,160 Climbing Toronto Center
10:00AM 43.7333 -79.4000 90° East 250 288 6,700 2,700 Climbing Toronto Center
10:01AM 43.6833 -79.3333 136° Southeast 250 288 9,200 2,520 Climbing Toronto Center
10:02AM 43.6167 -79.3333 180° South 250 288 11,800 2,460 Climbing Toronto Center
10:03AM 43.5500 -79.4000 216° Southwest 270 311 14,200 1,560 Climbing Toronto Center
10:04AM 43.5000 -79.4500 216° Southwest 270 311 15,000 480 Climbing Toronto Center
10:05AM 43.4500 -79.5333 230° Southwest 270 311 15,200 960 Climbing Toronto Center
10:06AM 43.3833 -79.6167 222° Southwest 280 322 17,000 1,200 Climbing Toronto Center
10:07AM 43.3167 -79.6500 200° South 300 345 17,600 660 Climbing Toronto Center
10:08AM 43.2167 -79.6167 166° South 360 414 18,400 1,020 Climbing Toronto Center
10:09AM 43.1167 -79.5667 160° South 380 437 19,700 1,320 Climbing Toronto Center
10:10AM 43.0167 -79.5167 160° South 390 449 21,100 1,320 Climbing Toronto Center
10:11AM 42.9000 -79.4500 157° South 400 460 22,400 1,260 Climbing Toronto Center
10:11AM 42.8672 -79.4500 180° South 391 450 23,100 1,200 Climbing Cleveland Center
10:12AM 42.7606 -79.3956 159° South 404 465 24,300 1,200 Climbing Cleveland Center
10:13AM 42.6494 -79.3439 161° South 412 474 25,500 960 Climbing Cleveland Center
10:14AM 42.5322 -79.2900 161° South 424 488 26,300 720 Climbing Cleveland Center
10:15AM 42.4128 -79.2278 159° South 433 498 27,000 300 Climbing Cleveland Center
10:16AM 42.3100 -79.1822 162° South 413 475 27,000  Level Cleveland Center
10:17AM 42.2050 -79.1311 160° South 405 466 27,000  Level Cleveland Center
10:18AM 42.1103 -79.0550 149° Southeast 398 458 27,000  Level Cleveland Center
10:19AM 42.0175 -78.9678 145° Southeast 397 457 27,000  Level Cleveland Center
10:20AM 41.9225 -78.8836 147° Southeast 409 471 27,000  Level Cleveland Center
10:21AM 41.8294 -78.7997 146° Southeast 409 471 27,000  Level Cleveland Center
10:22AM 41.7342 -78.7161 147° Southeast 409 471 27,000  Level Cleveland Center
10:23AM 41.6433 -78.6325 145° Southeast 409 471 27,000  Level Cleveland Center
10:24AM 41.5481 -78.5494 147° Southeast 409 471 27,000  Level Cleveland Center
10:25AM 41.4547 -78.4664 146° Southeast 404 465 27,000  Level Cleveland Center
10:26AM 41.3636 -78.3836 146° Southeast 404 465 27,000  Level Cleveland Center
10:27AM 41.2839 -78.3144 147° Southeast 410 472 27,000  Level New York Center
10:28AM 41.1911 -78.2325 146° Southeast 410 472 27,000 -480 Level New York Center
10:29AM 41.0983 -78.1506 146° Southeast 410 472 26,100 -1,020 Descending New York Center
10:30AM 41.0111 -78.0753 147° Southeast 399 459 25,000 -600 Descending New York Center
10:31AM 40.9222 -77.9969 146° Southeast 386 444 25,000  Level New York Center
10:32AM 40.8492 -77.8958 134° Southeast 386 444 25,000 -540 Level New York Center
10:33AM 40.7806 -77.7872 130° Southeast 386 444 24,000 -1,020 Descending New York Center
10:34AM 40.7136 -77.6847 131° Southeast 376 433 23,000 -540 Descending New York Center
10:35AM 40.6444 -77.5819 132° Southeast 376 433 23,000  Level New York Center
10:36AM 40.5886 -77.4669 123° Southeast 371 427 23,000  Level New York Center
10:37AM 40.5325 -77.3494 122° Southeast 376 433 23,000  Level New York Center
10:38AM 40.4667 -77.2206 124° Southeast 382 440 23,000 -360 Level New York Center
10:39AM 40.4106 -77.1006 122° Southeast 382 440 22,300 -1,020 Descending New York Center
10:40AM 40.3542 -76.9864 123° Southeast 387 445 21,100 -660 Descending New York Center
10:41AM 40.2997 -76.8728 122° Southeast 387 445 21,000 -60 Descending New York Center
10:42AM 40.2453 -76.7564 121° Southeast 387 445 21,000  Level New York Center
10:43AM 40.1881 -76.6456 124° Southeast 387 445 21,000  Level New York Center
10:44AM 40.1392 -76.5381 121° Southeast 387 445 21,000 -240 Level New York Center
10:47AM 40.0136 -76.2822 123° Southeast 383 441 20,300 -660 Descending Washington Center
10:48AM 39.9603 -76.1708 122° Southeast 372 428 19,000 -660 Descending Washington Center
10:49AM 39.9064 -76.0619 123° Southeast 367 422 19,000 -360 Level Washington Center
10:50AM 39.8506 -75.9536 124° Southeast 362 417 18,300 -960 Descending Washington Center
10:51AM 39.7989 -75.8453 122° Southeast 357 411 17,100 -1,260 Descending Washington Center
10:52AM 39.7469 -75.7428 123° Southeast 351 404 15,900 -1,200 Descending Washington Center
10:53AM 39.6969 -75.6428 123° Southeast 346 398 14,800 -960 Descending Washington Center
10:54AM 39.6303 -75.5728 141° Southeast 323 372 14,000 -420 Descending Washington Center
10:55AM 39.5781 -75.4947 131° Southeast 301 346 14,000  Level Washington Center
10:56AM 39.5364 -75.4139 124° Southeast 282 325 14,000  Level Washington Center
10:57AM 39.4986 -75.3306 120° Southeast 272 313 14,000 -180 Level Washington Center
10:58AM 39.4442 -75.2583 134° Southeast 267 307 13,700 -720 Descending Washington Center
10:59AM 39.3942 -75.1914 134° Southeast 267 307 12,600 -1,080 Descending Washington Center
11:00AM 39.3397 -75.1219 135° Southeast 267 307 11,600 -1,560 Descending Washington Center
11:01AM 39.2914 -75.0500 131° Southeast 272 313 9,500 -2,100 Descending Washington Center
11:02AM 39.3139 -74.9611 72° East 228 262 7,500 -1,920 Descending Washington Center
11:03AM 39.3636 -74.9044 41° Northeast 204 235 5,700 -1,860 Descending Washington Center
11:04AM 39.4133 -74.8503 40° Northeast 204 235 3,800 -2,040 Descending Washington Center
11:04AM 39.4419 -74.7933 57° Northeast 231 266 2,200 -1,800 Descending Washington Center
11:05AM 39.4481 -74.7719 70° East 220 253 2,000 -660 Descending Washington Center
11:06AM 39.4725 -74.6989 67° East 220 253 1,400 -540 Descending Washington Center
11:07AM 39.4950 -74.6314 67° East 210 242 1,000 -420 Descending Washington Center